DELTA 1 DEB, 7034

Orbit data source: Space-Track

DELTA 1 DEB, 7034 is space debris in SSO originally from a launch on Tue, 06 Nov 1973 UTC launched from the Air Force Western Test Range (AFWTR). Debris objects in space refer to the collection of defunct objects orbiting the Earth. Examples of debris include non-operational satellites, rocket bodies, and fragments generated from explosions, collisions, or faulty payload assembly.

Loading next visibility...
Identifier
7034, 1973-086AA
Orbit
SSO
Last TLE update
1 day ago
Origin
Manufacturer
Unknown
Mission
Spacecraft
Bus & Motor
Unknown
Mass
Unknown
Launch date (UTC)
1973-11-06 (52 years ago)
Launch vehicle
Unknown
Launch site
Air Force Western Test Range (AFWTR)
Object type
Payload
Rocket body
Debris
Shape & HBR
Unknown
Radar Cross Section
Small (<0.1 m²)

Expand to show TLE details & history

TLE from 1 day ago
0 DELTA 1 DEB
1  7034U 73086AA  25125.86994116  .00000026  00000-0  51144-3 0  9993
2  7034 102.0742 102.2294 0016886  50.2881   6.2931 12.43810118335590
Epoch: 2025-05-05T20:52Z
Definitive object data (Epoch: 2025-05-05T20:52:42.916Z)
Latitude
54.82081°
Longitude
-92.50353°
Altitude
1,486.125 km
Speed
7.132 km/s
True Right ascension
05h 38m 36s
True Declination
54° 40' 25"
Sunlit
Object was in daylight at TLE epoch
Visualization TLE readout
Latitude
28.58918°
Longitude
-80.30973°
Altitude
1,481.121 km
Speed
7.131 km/s
Apparent Right ascension
03h 50m 16s
Apparent Declination
-2° 29' 11"
Sunlit
Object is in daylight
Visualization observer readout
Local Sidereal Time
11:37:34
Azimuth
286.022° WNW
Elevation
-21.939°
Doppler factor
1
Orbital elements
Apogee altitude
1,501.35 km
Perigee altitude
1,474.784 km
Semi-major axis
7,866.204 km
Eccentricity
0.0016886
Inclination
102.0742°
RAAN
102.2294°
Arg. of periapsis
50.2881°
True anomaly
6.31435°
Mean anomaly
6.2931°
Eccentric anomaly
6.30372°
Mean motion
3.11097 °/min
BSTAR
0.00051144
Orbital period
115.72 mins
Loading maneuver chart data...
Loading SW <> Apogee altitude chart data...
Loading historical data...
Loading historical data...
Loading historical data...
Loading historical data...
Loading historical data...
Loading historical data...
Loading historical data...

DELTA 1 DEB Visibility forecast

Observer location: undefined°, undefined°

Span
Click to sort rows by Start time (UTC) header in descending order
Start Az.
Max El. time (UTC)
Max El. Az.
Max El.
End time (UTC)
End Az.
12 mins2025-05-07 09:55:05.280Z46.285° ENE2025-05-07 10:01:05.280Z95.755° ESE22.863°2025-05-07 10:07:05.280Z144.122° SSE
15 mins2025-05-07 11:48:05.280Z12.105° NNE2025-05-07 11:55:05.280Z295.467° NW43.353°2025-05-07 12:03:05.280Z211.411° SW
7 mins2025-05-07 13:44:05.280Z337.211° NNW2025-05-07 13:47:05.280Z313.834° NW15.879°2025-05-07 13:51:05.280Z283.267° WNW
13 mins2025-05-07 20:59:05.280Z117.433° SE2025-05-07 21:05:05.280Z58.071° ENE31.908°2025-05-07 21:12:05.280Z357.47° N
14 mins2025-05-07 22:52:05.280Z189.856° SSW2025-05-07 22:58:05.280Z253.286° W37.312°2025-05-07 23:06:05.280Z331.155° NNW
|